Time,TemperatureF,DewpointF,PressureIn,WindDirection,WindDirectionDegrees,WindSpeedMPH,WindSpeedGustMPH,Humidity,HourlyPrecipIn,Conditions,Clouds,dailyrainin,SoftwareType,DateUTC
2013-07-19 00:30:00,75.9,70.8,29.99,SW,225,0.0,0.0,84,0.00,,,0.00,WUHU21623XXSP,2013-07-19 05:30:00,
2013-07-19 01:30:00,75.9,70.8,29.98,SW,225,0.0,0.0,84,0.00,,,0.00,WUHU21623XXSP,2013-07-19 06:30:00,
2013-07-19 02:30:00,75.4,70.6,29.96,SW,225,0.0,0.0,85,0.00,,,0.00,WUHU21623XXSP,2013-07-19 07:30:00,
2013-07-19 03:30:00,74.8,70.0,29.94,SW,225,0.0,0.0,85,0.00,,,0.00,WUHU21623XXSP,2013-07-19 08:30:00,
2013-07-19 04:30:00,73.9,69.1,29.94,WSW,248,0.0,0.0,85,0.00,,,0.00,WUHU21623XXSP,2013-07-19 09:30:00,
2013-07-19 05:30:00,73.4,68.6,29.93,SW,225,0.0,0.0,85,0.00,,,0.00,WUHU21623XXSP,2013-07-19 10:30:00,
2013-07-19 06:15:00,73.8,69.0,29.94,SW,225,0.0,0.0,85,0.00,,,0.00,WUHU21623XXSP,2013-07-19 11:15:00,
2013-07-19 06:20:00,73.9,69.2,29.94,WSW,247,3.8,8.1,85,0.00,,,1.32,WUHU21623XXSP,2013-07-19 11:20:00,
2013-07-19 06:25:00,73.9,69.2,29.94,SW,225,0.0,8.1,85,0.00,,,1.32,WUHU21623XXSP,2013-07-19 11:25:00,
2013-07-19 06:30:00,74.1,69.3,29.94,SSW,202,4.3,5.8,85,0.00,,,1.32,WUHU21623XXSP,2013-07-19 11:30:00,
2013-07-19 06:35:00,74.3,69.5,29.95,SW,225,0.0,7.6,85,0.00,,,1.32,WUHU21623XXSP,2013-07-19 11:35:00,
2013-07-19 06:40:00,74.5,69.7,29.94,WSW,247,1.3,7.6,85,0.00,,,1.32,WUHU21623XXSP,2013-07-19 11:40:00,
2013-07-19 06:45:00,74.8,70.1,29.94,WSW,247,0.0,6.9,85,0.00,,,1.32,WUHU21623XXSP,2013-07-19 11:45:00,
2013-07-19 06:50:00,74.8,70.1,29.94,WSW,247,0.0,4.7,85,0.00,,,1.32,WUHU21623XXSP,2013-07-19 11:50:00,
2013-07-19 06:55:00,75.0,70.6,29.94,South,180,3.6,6.9,86,0.00,,,1.32,WUHU21623XXSP,2013-07-19 11:55:00,
2013-07-19 07:00:00,75.4,70.9,29.94,SSW,202,8.5,8.5,86,0.00,,,1.32,WUHU21623XXSP,2013-07-19 12:00:00,
2013-07-19 07:05:00,75.6,71.1,29.95,SSW,202,1.1,9.8,86,0.00,,,1.32,WUHU21623XXSP,2013-07-19 12:05:00,
2013-07-19 07:10:00,75.7,70.9,29.95,SW,225,0.0,9.8,85,0.00,,,1.32,WUHU21623XXSP,2013-07-19 12:10:00,
2013-07-19 07:15:00,75.9,71.1,29.95,WSW,247,0.0,6.5,85,0.00,,,1.32,WUHU21623XXSP,2013-07-19 12:15:00,
2013-07-19 07:20:00,76.3,71.5,29.95,SW,225,1.3,6.9,85,0.00,,,1.32,WUHU21623XXSP,2013-07-19 12:20:00,
2013-07-19 07:25:00,76.6,71.8,29.95,SW,225,2.2,6.9,85,0.00,,,1.32,WUHU21623XXSP,2013-07-19 12:25:00,
2013-07-19 07:30:00,76.8,72.0,29.95,WSW,247,0.0,10.1,85,0.00,,,1.32,WUHU21623XXSP,2013-07-19 12:30:00,
2013-07-19 07:35:00,77.2,72.3,29.95,West,270,1.8,12.8,85,0.00,,,1.32,WUHU21623XXSP,2013-07-19 12:35:00,
2013-07-19 07:40:00,77.4,72.5,29.95,SW,225,1.3,12.8,85,0.00,,,1.32,WUHU21623XXSP,2013-07-19 12:40:00,
2013-07-19 07:45:00,77.5,72.3,29.96,SW,225,0.0,6.9,84,0.00,,,1.32,WUHU21623XXSP,2013-07-19 12:45:00,
2013-07-19 07:50:00,77.7,72.5,29.96,WSW,247,0.0,6.9,84,0.00,,,1.32,WUHU21623XXSP,2013-07-19 12:50:00,
2013-07-19 07:56:00,78.1,72.9,29.96,WSW,247,2.5,5.6,84,0.00,,,1.32,WUHU21623XXSP,2013-07-19 12:56:00,
2013-07-19 08:01:00,78.6,73.4,29.96,WSW,247,0.0,5.6,84,0.00,,,1.32,WUHU21623XXSP,2013-07-19 13:01:00,
2013-07-19 08:06:00,78.6,73.0,29.96,West,270,1.3,5.6,83,0.00,,,1.32,WUHU21623XXSP,2013-07-19 13:06:00,
2013-07-19 08:11:00,79.2,73.6,29.96,WSW,247,0.0,5.6,83,0.00,,,1.32,WUHU21623XXSP,2013-07-19 13:11:00,
2013-07-19 08:16:00,79.7,74.1,29.96,SW,225,2.0,5.8,83,0.00,,,1.32,WUHU21623XXSP,2013-07-19 13:16:00,
2013-07-19 08:21:00,80.2,74.3,29.96,SW,225,0.0,5.8,82,0.00,,,1.32,WUHU21623XXSP,2013-07-19 13:21:00,
2013-07-19 08:26:00,80.4,74.4,29.96,SW,225,1.8,6.0,82,0.00,,,1.32,WUHU21623XXSP,2013-07-19 13:26:00,
2013-07-19 08:27:00,80.4,74.4,29.96,WSW,247,1.8,6.0,82,0.00,,,1.32,WUHU21623XXSP,2013-07-19 13:27:00,
2013-07-19 08:32:00,81.0,74.3,29.96,SW,225,5.4,8.7,80,0.00,,,1.32,WUHU21623XXSP,2013-07-19 13:32:00,
2013-07-19 08:37:00,81.3,74.7,29.96,WSW,247,3.6,8.7,80,0.00,,,1.32,WUHU21623XXSP,2013-07-19 13:37:00,
2013-07-19 08:42:00,81.7,75.0,29.96,SSW,202,1.1,7.6,80,0.00,,,1.32,WUHU21623XXSP,2013-07-19 13:42:00,
2013-07-19 08:47:00,82.0,75.0,29.96,SW,225,4.5,7.6,79,0.00,,,1.32,WUHU21623XXSP,2013-07-19 13:47:00,
2013-07-19 08:52:00,82.2,74.7,29.96,WSW,247,2.0,11.0,78,0.00,,,1.32,WUHU21623XXSP,2013-07-19 13:52:00,
2013-07-19 08:57:00,82.4,74.9,29.96,WSW,247,2.0,11.0,78,0.00,,,1.32,WUHU21623XXSP,2013-07-19 13:57:00,
2013-07-19 09:02:00,82.8,74.8,29.96,WSW,247,4.0,7.4,77,0.00,,,1.32,WUHU21623XXSP,2013-07-19 14:02:00,
2013-07-19 09:07:00,83.1,74.8,29.96,WSW,247,2.7,9.2,76,0.00,,,1.32,WUHU21623XXSP,2013-07-19 14:07:00,
2013-07-19 09:30:00,84.0,75.4,29.96,SSW,203,5.4,5.4,75,0.00,,,0.00,WUHU21623XXSP,2013-07-19 14:30:00,
2013-07-19 10:30:00,86.5,77.0,29.95,WSW,248,3.1,3.1,73,0.00,,,0.00,WUHU21623XXSP,2013-07-19 15:30:00,
2013-07-19 11:30:00,88.2,77.9,29.93,WSW,248,2.2,2.2,71,0.00,,,0.00,WUHU21623XXSP,2013-07-19 16:30:00,
2013-07-19 12:30:00,89.8,78.1,29.91,South,180,0.0,0.0,68,0.00,,,0.00,WUHU21623XXSP,2013-07-19 17:30:00,
2013-07-19 13:30:00,91.0,77.4,29.89,SW,225,2.9,2.9,64,0.00,,,0.00,WUHU21623XXSP,2013-07-19 18:30:00,
2013-07-19 14:30:00,91.9,77.3,29.87,WSW,248,1.1,1.1,62,0.00,,,0.00,WUHU21623XXSP,2013-07-19 19:30:00,
2013-07-19 15:30:00,89.8,75.3,29.86,SSW,203,1.3,1.3,62,0.00,,,0.00,WUHU21623XXSP,2013-07-19 20:30:00,
2013-07-19 16:30:00,90.0,76.0,29.84,WSW,248,6.3,6.3,63,0.00,,,0.00,WUHU21623XXSP,2013-07-19 21:30:00,
2013-07-19 17:32:00,88.2,74.8,29.83,WSW,248,4.5,4.5,64,0.00,,,0.00,WUHU21623XXSP,2013-07-19 22:32:00,
2013-07-19 17:37:00,88.0,74.3,29.83,WSW,247,10.1,10.1,64,0.00,,,1.32,WUHU21623XXSP,2013-07-19 22:37:00,
2013-07-19 17:42:00,88.0,74.3,29.82,WSW,247,4.0,10.1,64,0.00,,,1.32,WUHU21623XXSP,2013-07-19 22:42:00,
2013-07-19 17:47:00,88.2,74.4,29.83,SW,225,4.0,8.9,64,0.00,,,1.32,WUHU21623XXSP,2013-07-19 22:47:00,
2013-07-19 17:52:00,88.3,75.1,29.83,WSW,247,0.0,8.1,65,0.00,,,1.32,WUHU21623XXSP,2013-07-19 22:52:00,
2013-07-19 17:57:00,88.2,74.9,29.83,WSW,247,1.6,8.1,65,0.00,,,1.32,WUHU21623XXSP,2013-07-19 22:57:00,
2013-07-19 18:02:00,88.9,75.6,29.83,WSW,247,0.0,6.9,65,0.00,,,1.32,WUHU21623XXSP,2013-07-19 23:02:00,
2013-07-19 18:07:00,92.8,77.5,29.83,SW,225,3.6,6.9,61,0.00,,,1.32,WUHU21623XXSP,2013-07-19 23:07:00,
2013-07-19 18:12:00,94.5,77.9,29.83,WSW,247,5.8,6.9,59,0.00,,,1.32,WUHU21623XXSP,2013-07-19 23:12:00,
2013-07-19 18:17:00,93.7,76.7,29.83,SW,225,4.5,6.7,58,0.00,,,1.32,WUHU21623XXSP,2013-07-19 23:17:00,
2013-07-19 18:22:00,91.9,76.1,29.83,WSW,247,0.0,6.3,60,0.00,,,1.32,WUHU21623XXSP,2013-07-19 23:22:00,
2013-07-19 18:27:00,90.7,75.4,29.83,WSW,247,0.0,6.7,61,0.00,,,1.32,WUHU21623XXSP,2013-07-19 23:27:00,
2013-07-19 18:32:00,90.7,75.8,29.83,SW,225,0.0,6.7,62,0.00,,,1.32,WUHU21623XXSP,2013-07-19 23:32:00,
2013-07-19 18:37:00,90.5,76.2,29.83,SW,225,0.0,3.4,63,0.00,,,1.32,WUHU21623XXSP,2013-07-19 23:37:00,
2013-07-19 18:42:00,90.7,76.3,29.83,SW,225,2.0,6.3,63,0.00,,,1.32,WUHU21623XXSP,2013-07-19 23:42:00,
2013-07-19 18:47:00,91.0,76.2,29.83,SW,225,0.4,8.3,62,0.00,,,1.32,WUHU21623XXSP,2013-07-19 23:47:00,
2013-07-19 18:52:00,90.5,75.7,29.83,WSW,247,0.0,8.3,62,0.00,,,1.32,WUHU21623XXSP,2013-07-19 23:52:00,
2013-07-19 18:57:00,89.8,75.5,29.83,WSW,247,0.0,2.2,63,0.00,,,1.32,WUHU21623XXSP,2013-07-19 23:57:00,
2013-07-19 19:02:00,88.9,75.1,29.83,SW,225,0.0,1.1,64,0.00,,,1.32,WUHU21623XXSP,2013-07-20 00:02:00,
2013-07-19 19:07:00,88.3,74.6,29.83,WSW,247,0.0,2.7,64,0.00,,,1.32,WUHU21623XXSP,2013-07-20 00:07:00,
2013-07-19 19:12:00,87.6,74.4,29.83,WSW,247,0.0,2.7,65,0.00,,,1.32,WUHU21623XXSP,2013-07-20 00:12:00,
2013-07-19 19:17:00,87.1,74.5,29.83,SW,225,0.0,2.9,66,0.00,,,1.32,WUHU21623XXSP,2013-07-20 00:17:00,
2013-07-19 19:22:00,86.7,74.0,29.83,WSW,247,0.0,2.9,66,0.00,,,1.32,WUHU21623XXSP,2013-07-20 00:22:00,
2013-07-19 19:28:00,86.4,74.1,29.83,WSW,247,0.0,1.1,67,0.00,,,1.32,WUHU21623XXSP,2013-07-20 00:28:00,
2013-07-19 19:33:00,85.8,73.6,29.83,WSW,247,0.0,4.0,67,0.00,,,1.32,WUHU21623XXSP,2013-07-20 00:33:00,
2013-07-19 19:38:00,85.8,74.1,29.83,SW,225,0.0,4.0,68,0.00,,,1.32,WUHU21623XXSP,2013-07-20 00:38:00,
2013-07-19 19:43:00,85.3,73.5,29.83,SW,225,0.0,2.5,68,0.00,,,1.32,WUHU21623XXSP,2013-07-20 00:43:00,
2013-07-19 19:48:00,84.9,73.2,29.83,SW,225,0.0,2.5,68,0.00,,,1.32,WUHU21623XXSP,2013-07-20 00:48:00,
2013-07-19 19:53:00,84.6,73.3,29.83,SW,225,0.0,1.6,69,0.00,,,1.32,WUHU21623XXSP,2013-07-20 00:53:00,
2013-07-19 19:58:00,84.0,72.8,29.83,SW,225,0.0,1.6,69,0.00,,,1.32,WUHU21623XXSP,2013-07-20 00:58:00,
2013-07-19 20:03:00,83.8,73.0,29.83,SW,225,0.0,0.0,70,0.00,,,1.32,WUHU21623XXSP,2013-07-20 01:03:00,
2013-07-19 20:08:00,83.3,72.9,29.83,SW,225,0.0,0.0,71,0.00,,,1.32,WUHU21623XXSP,2013-07-20 01:08:00,
2013-07-19 20:13:00,82.9,72.5,29.84,SW,225,0.0,0.0,71,0.00,,,1.32,WUHU21623XXSP,2013-07-20 01:13:00,
2013-07-19 20:18:00,82.6,72.2,29.83,WSW,247,0.0,0.0,71,0.00,,,1.32,WUHU21623XXSP,2013-07-20 01:18:00,
2013-07-19 20:23:00,82.2,72.2,29.83,SSW,202,0.0,1.6,72,0.00,,,1.32,WUHU21623XXSP,2013-07-20 01:23:00,
2013-07-19 20:28:00,82.0,72.1,29.83,SW,225,0.0,1.8,72,0.00,,,1.32,WUHU21623XXSP,2013-07-20 01:28:00,
2013-07-19 20:33:00,81.7,72.2,29.83,WSW,247,0.0,3.6,73,0.00,,,1.32,WUHU21623XXSP,2013-07-20 01:33:00,
2013-07-19 20:38:00,81.3,71.8,29.83,SW,225,0.0,3.6,73,0.00,,,1.32,WUHU21623XXSP,2013-07-20 01:38:00,
2013-07-19 20:43:00,81.1,71.7,29.82,SW,225,0.0,5.1,73,0.00,,,1.32,WUHU21623XXSP,2013-07-20 01:43:00,
2013-07-19 20:48:00,80.8,71.7,29.83,SSW,202,0.0,5.1,74,0.00,,,1.32,WUHU21623XXSP,2013-07-20 01:48:00,
2013-07-19 20:53:00,80.6,71.6,29.83,SW,225,1.8,3.1,74,0.00,,,1.32,WUHU21623XXSP,2013-07-20 01:53:00,
2013-07-19 20:58:00,80.4,71.8,29.83,WSW,247,0.0,3.4,75,0.00,,,1.32,WUHU21623XXSP,2013-07-20 01:58:00,
2013-07-19 21:03:00,80.2,71.6,29.84,SW,225,0.0,4.5,75,0.00,,,1.32,WUHU21623XXSP,2013-07-20 02:03:00,
2013-07-19 21:08:00,80.2,71.6,29.84,WSW,247,0.0,4.9,75,0.00,,,1.32,WUHU21623XXSP,2013-07-20 02:08:00,
2013-07-19 21:13:00,80.1,71.8,29.84,SSW,202,0.0,4.9,76,0.00,,,1.32,WUHU21623XXSP,2013-07-20 02:13:00,
2013-07-19 21:18:00,79.9,71.6,29.84,SW,225,0.0,4.3,76,0.00,,,1.32,WUHU21623XXSP,2013-07-20 02:18:00,
2013-07-19 21:23:00,79.7,71.5,29.84,SW,225,1.3,6.7,76,0.00,,,1.32,WUHU21623XXSP,2013-07-20 02:23:00,
2013-07-19 21:28:00,79.5,71.3,29.84,South,180,0.0,6.7,76,0.00,,,1.32,WUHU21623XXSP,2013-07-20 02:28:00,
2013-07-19 21:33:00,79.5,71.3,29.85,SSW,202,0.0,4.5,76,0.00,,,1.32,WUHU21623XXSP,2013-07-20 02:33:00,
2013-07-19 21:38:00,79.3,71.5,29.85,SSW,202,0.0,4.7,77,0.00,,,1.32,WUHU21623XXSP,2013-07-20 02:38:00,
2013-07-19 21:43:00,79.3,71.5,29.85,SW,225,1.3,7.4,77,0.00,,,1.32,WUHU21623XXSP,2013-07-20 02:43:00,
2013-07-19 21:48:00,79.2,71.3,29.85,SW,225,0.7,7.4,77,0.00,,,1.32,WUHU21623XXSP,2013-07-20 02:48:00,
2013-07-19 21:53:00,79.2,71.3,29.85,SW,225,3.8,6.0,77,0.00,,,1.32,WUHU21623XXSP,2013-07-20 02:53:00,
2013-07-19 21:58:00,79.0,71.1,29.85,SW,225,0.0,3.8,77,0.00,,,1.32,WUHU21623XXSP,2013-07-20 02:58:00,
2013-07-19 22:03:00,79.0,71.1,29.86,SSW,202,0.0,5.1,77,0.00,,,1.32,WUHU21623XXSP,2013-07-20 03:03:00,
2013-07-19 22:08:00,79.0,71.5,29.86,SW,225,0.0,5.6,78,0.00,,,1.32,WUHU21623XXSP,2013-07-20 03:08:00,
2013-07-19 22:13:00,78.6,71.2,29.86,SW,225,0.0,5.6,78,0.00,,,1.32,WUHU21623XXSP,2013-07-20 03:13:00,
2013-07-19 22:18:00,78.6,71.2,29.85,SW,225,0.0,4.0,78,0.00,,,1.32,WUHU21623XXSP,2013-07-20 03:18:00,
2013-07-19 22:23:00,78.6,71.2,29.85,SW,225,0.0,2.9,78,0.00,,,1.32,WUHU21623XXSP,2013-07-20 03:23:00,
2013-07-19 22:29:00,78.6,71.2,29.85,WSW,247,1.1,2.9,78,0.00,,,1.32,WUHU21623XXSP,2013-07-20 03:29:00,
2013-07-19 22:33:00,78.6,71.2,29.86,SW,225,0.0,4.7,78,0.00,,,1.32,WUHU21623XXSP,2013-07-20 03:33:00,
2013-07-19 22:39:00,78.6,71.2,29.85,SSW,202,0.0,4.7,78,0.00,,,1.32,WUHU21623XXSP,2013-07-20 03:39:00,
2013-07-19 22:44:00,78.6,71.2,29.85,WSW,247,1.3,5.4,78,0.00,,,1.32,WUHU21623XXSP,2013-07-20 03:44:00,
2013-07-19 22:49:00,78.6,71.2,29.85,WSW,247,5.8,6.7,78,0.00,,,1.32,WUHU21623XXSP,2013-07-20 03:49:00,
2013-07-19 22:54:00,78.6,71.6,29.85,SW,225,2.5,6.7,79,0.00,,,1.32,WUHU21623XXSP,2013-07-20 03:54:00,
2013-07-19 22:59:00,78.6,71.6,29.85,SW,225,3.4,9.6,79,0.00,,,1.32,WUHU21623XXSP,2013-07-20 03:59:00,
2013-07-19 23:01:00,78.6,71.6,29.85,SW,225,5.4,9.6,79,0.00,,,1.32,WUHU21623XXSP,2013-07-20 04:01:00,
2013-07-19 23:06:00,78.6,71.6,29.85,WSW,247,0.0,10.7,79,0.00,,,1.32,WUHU21623XXSP,2013-07-20 04:06:00,
2013-07-19 23:12:00,78.6,71.6,29.84,West,270,1.8,10.7,79,0.00,,,1.32,WUHU21623XXSP,2013-07-20 04:12:00,
2013-07-19 23:17:00,78.6,71.6,29.84,SSW,202,0.0,5.8,79,0.00,,,1.32,WUHU21623XXSP,2013-07-20 04:17:00,
2013-07-19 23:22:00,78.6,71.6,29.84,SW,225,3.1,7.4,79,0.00,,,1.32,WUHU21623XXSP,2013-07-20 04:22:00,
2013-07-19 23:27:00,78.6,71.6,29.84,WSW,247,2.2,7.4,79,0.00,,,1.32,WUHU21623XXSP,2013-07-20 04:27:00,
2013-07-19 23:32:00,78.6,71.6,29.84,South,180,3.8,14.1,79,0.00,,,1.32,WUHU21623XXSP,2013-07-20 04:32:00,
2013-07-19 23:37:00,79.0,71.9,29.84,SW,225,1.6,14.1,79,0.00,,,1.32,WUHU21623XXSP,2013-07-20 04:37:00,
2013-07-19 23:42:00,79.2,72.1,29.84,SW,225,0.0,11.6,79,0.00,,,1.32,WUHU21623XXSP,2013-07-20 04:42:00,
2013-07-19 23:47:00,79.3,72.1,29.84,South,180,2.2,6.3,79,0.00,,,1.32,WUHU21623XXSP,2013-07-20 04:47:00,
2013-07-19 23:52:00,79.3,72.3,29.84,WSW,247,1.3,6.9,79,0.00,,,1.32,WUHU21623XXSP,2013-07-20 04:52:00,
2013-07-19 23:57:00,79.3,72.3,29.84,SW,225,1.6,6.9,79,0.00,,,1.32,WUHU21623XXSP,2013-07-20 04:57:00,